Weather in Novokastornoye

Russia / Kursk Oblast     51°46′40″N   38°07′44″E
temp.,
°C
wind,
m/s
gust,
m/s
humid.,
%
clouds,
%
prec.,
mm/h
press.,
hPa
HPBL,
m
21 june, mon
mon2100:00+18e4884100 0.0 1020143
03:00+17e4128294 0.0 1019208
06:00+18e5117982 0.0 1019234
09:00+22ese4668100 0.0 1019307
12:00+27se57555 0.0 1019695
15:00+28ese57514 0.0 1019936
18:00+26ese49641 0.0 1019423
21:00+21e46811 0.0 101995
22 june, tue
tue2200:00+20ese49820 0.0 1019131
03:00+18ese410840 0.0 1020170
06:00+19e412812 0.0 1020238
09:00+24ese611665 0.0 1020450
12:00+28ese6955100 0.0 1019856
15:00+29ese675497 0.0 10191248
18:00+28ese48655 0.0 1019454
21:00+23e49769 0.0 1019143
23 june, wed
wed2300:00+21e49815 0.0 1019140
03:00+19e410825 0.0 1019162
06:00+20ene5128136 0.0 1019231
09:00+26e696585 0.0 1019454
12:00+29e574870 0.0 1019920
15:00+30ese5650100 0.0 1019989
18:00+29e2362100 0.0 1018332
21:00+25e226777 0.0 101921
24 june, thu
thu2400:00+22e347347 0.0 101947
03:00+21e35829 0.0 101969
06:00+22e368126 0.0 1019141
09:00+27e46638 0.0 1019395
12:00+30ese45505 0.0 10191097
15:00+32ene34465 0.0 10181869
18:00+29ene36615 0.0 1017330
21:00+24ene33723 0.1 101833
25 june, fri
fri2500:00+22e237164 0.0 101724
03:00+20e228667 0.0 101713
06:00+21e35835 0.0 1017126
09:00+26e346716 0.0 1017468
12:00+29ene33585 0.0 10171002
15:00+30ne33515 0.0 10161460
18:00+29ne236032 0.0 1015595
21:00+24ese11763 0.0 101411